Time,TemperatureF,DewpointF,PressureIn,WindDirection,WindDirectionDegrees,WindSpeedMPH,WindSpeedGustMPH,Humidity,HourlyPrecipIn,Conditions,Clouds,dailyrainin,SoftwareType,DateUTC
2013-07-14 00:02:00,74.0,64.4,29.89,NW,315,16.0,24.0,72,0.00,,,0.00,VWS V14.01,2013-07-14 06:02:00,
2013-07-14 00:07:00,73.0,64.6,29.89,NW,315,18.0,25.0,75,0.00,,,0.00,VWS V14.01,2013-07-14 06:07:00,
2013-07-14 00:12:00,73.0,64.6,29.91,NW,315,22.0,26.0,75,0.00,,,0.00,VWS V14.01,2013-07-14 06:12:00,
2013-07-14 00:17:00,72.0,64.8,29.91,NW,315,19.0,26.0,78,0.00,,,0.00,VWS V14.01,2013-07-14 06:17:00,
2013-07-14 00:22:00,72.0,65.1,29.91,NW,315,19.0,27.0,79,0.00,,,0.00,VWS V14.01,2013-07-14 06:22:00,
2013-07-14 00:27:00,72.0,64.8,29.91,NW,315,31.0,32.0,78,0.00,,,0.00,VWS V14.01,2013-07-14 06:27:00,
2013-07-14 00:32:00,71.0,64.2,29.92,NW,315,25.0,32.0,79,0.00,,,0.00,VWS V14.01,2013-07-14 06:32:00,
2013-07-14 00:37:00,71.0,64.5,29.92,NW,315,30.0,32.0,80,0.00,,,0.00,VWS V14.01,2013-07-14 06:37:00,
2013-07-14 00:42:00,71.0,65.2,29.91,NW,315,20.0,32.0,82,0.00,,,0.00,VWS V14.01,2013-07-14 06:42:00,
2013-07-14 00:47:00,71.0,65.2,29.91,NW,315,20.0,32.0,82,0.00,,,0.00,VWS V14.01,2013-07-14 06:47:00,
2013-07-14 00:52:00,71.0,65.6,29.92,NW,315,29.0,34.0,83,0.00,,,0.00,VWS V14.01,2013-07-14 06:52:00,
2013-07-14 00:57:00,70.0,64.9,29.92,NW,315,36.0,41.0,84,0.00,,,0.00,VWS V14.01,2013-07-14 06:57:00,
2013-07-14 01:02:00,70.0,65.3,29.92,NW,315,21.0,34.0,85,0.00,,,0.00,VWS V14.01,2013-07-14 07:02:00,
2013-07-14 01:07:00,70.0,65.3,29.92,NNW,337,28.0,36.0,85,0.00,,,0.00,VWS V14.01,2013-07-14 07:07:00,
2013-07-14 01:12:00,70.0,65.6,29.93,NW,315,24.0,36.0,86,0.00,,,0.00,VWS V14.01,2013-07-14 07:12:00,
2013-07-14 01:17:00,69.0,64.3,29.93,NW,315,17.0,36.0,85,0.00,,,0.00,VWS V14.01,2013-07-14 07:17:00,
2013-07-14 01:22:00,69.0,64.6,29.93,NW,315,26.0,36.0,86,0.00,,,0.00,VWS V14.01,2013-07-14 07:22:00,
2013-07-14 01:27:00,69.0,64.6,29.93,NW,315,21.0,36.0,86,0.00,,,0.00,VWS V14.01,2013-07-14 07:27:00,
2013-07-14 01:32:00,69.0,65.3,29.93,NW,315,19.0,32.0,88,0.00,,,0.00,VWS V14.01,2013-07-14 07:32:00,
2013-07-14 01:38:00,68.0,64.3,29.93,NW,315,19.0,32.0,88,0.00,,,0.00,VWS V14.01,2013-07-14 07:38:00,
2013-07-14 01:43:00,68.0,64.3,29.95,NW,315,26.0,32.0,88,0.00,,,0.00,VWS V14.01,2013-07-14 07:43:00,
2013-07-14 01:48:00,68.0,64.3,29.95,NW,315,24.0,35.0,88,0.00,,,0.00,VWS V14.01,2013-07-14 07:48:00,
2013-07-14 01:53:00,68.0,64.0,29.97,NW,315,23.0,35.0,87,0.00,,,0.00,VWS V14.01,2013-07-14 07:53:00,
2013-07-14 01:58:00,68.0,63.7,29.97,NW,315,26.0,35.0,86,0.00,,,0.00,VWS V14.01,2013-07-14 07:58:00,
2013-07-14 02:03:00,68.0,63.0,29.95,NW,315,26.0,34.0,84,0.00,,,0.00,VWS V14.01,2013-07-14 08:03:00,
2013-07-14 02:08:00,68.0,63.0,29.95,NW,315,27.0,34.0,84,0.00,,,0.00,VWS V14.01,2013-07-14 08:08:00,
2013-07-14 02:13:00,68.0,63.0,29.96,NNW,337,20.0,34.0,84,0.00,,,0.00,VWS V14.01,2013-07-14 08:13:00,
2013-07-14 02:18:00,68.0,63.7,29.96,NNW,337,17.0,34.0,86,0.00,,,0.00,VWS V14.01,2013-07-14 08:18:00,
2013-07-14 02:23:00,68.0,64.0,29.97,NW,315,25.0,34.0,87,0.00,,,0.00,VWS V14.01,2013-07-14 08:23:00,
2013-07-14 02:28:00,68.0,64.0,29.97,NW,315,21.0,34.0,87,0.00,,,0.00,VWS V14.01,2013-07-14 08:28:00,
2013-07-14 02:33:00,67.0,63.3,29.96,NNW,337,25.0,32.0,88,0.00,,,0.00,VWS V14.01,2013-07-14 08:33:00,
2013-07-14 02:38:00,67.0,63.3,29.96,NW,315,26.0,32.0,88,0.00,,,0.00,VWS V14.01,2013-07-14 08:38:00,
2013-07-14 02:43:00,67.0,63.7,29.97,NW,315,20.0,32.0,89,0.00,,,0.00,VWS V14.01,2013-07-14 08:43:00,
2013-07-14 02:48:00,67.0,63.3,29.97,NNW,337,26.0,32.0,88,0.00,,,0.00,VWS V14.01,2013-07-14 08:48:00,
2013-07-14 02:53:00,67.0,63.3,29.97,NW,315,22.0,32.0,88,0.00,,,0.00,VWS V14.01,2013-07-14 08:53:00,
2013-07-14 02:58:00,67.0,63.3,29.97,NW,315,22.0,32.0,88,0.00,,,0.00,VWS V14.01,2013-07-14 08:58:00,
2013-07-14 03:03:00,66.0,62.7,29.98,NW,315,26.0,31.0,89,0.00,,,0.00,VWS V14.01,2013-07-14 09:03:00,
2013-07-14 03:08:00,66.0,62.7,29.98,NW,315,19.0,33.0,89,0.00,,,0.00,VWS V14.01,2013-07-14 09:08:00,
2013-07-14 03:13:00,66.0,63.0,30.00,NW,315,19.0,33.0,90,0.00,,,0.00,VWS V14.01,2013-07-14 09:13:00,
2013-07-14 03:18:00,66.0,62.7,30.00,NW,315,19.0,33.0,89,0.00,,,0.00,VWS V14.01,2013-07-14 09:18:00,
2013-07-14 03:23:00,66.0,62.7,30.00,NW,315,22.0,33.0,89,0.00,,,0.00,VWS V14.01,2013-07-14 09:23:00,
2013-07-14 03:28:00,66.0,62.7,30.00,NW,315,19.0,33.0,89,0.00,,,0.00,VWS V14.01,2013-07-14 09:28:00,
2013-07-14 03:33:00,66.0,62.7,30.00,NW,315,18.0,26.0,89,0.00,,,0.00,VWS V14.01,2013-07-14 09:33:00,
2013-07-14 03:38:00,66.0,62.3,30.00,NW,315,15.0,26.0,88,0.00,,,0.00,VWS V14.01,2013-07-14 09:38:00,
2013-07-14 03:43:00,66.0,62.3,30.02,NW,315,16.0,26.0,88,0.00,,,0.00,VWS V14.01,2013-07-14 09:43:00,
2013-07-14 03:48:00,66.0,62.0,30.02,NW,315,16.0,26.0,87,0.00,,,0.00,VWS V14.01,2013-07-14 09:48:00,
2013-07-14 03:53:00,67.0,62.7,30.01,NW,315,22.0,26.0,86,0.00,,,0.00,VWS V14.01,2013-07-14 09:53:00,
2013-07-14 03:58:00,67.0,62.3,30.01,NW,315,21.0,26.0,85,0.00,,,0.00,VWS V14.01,2013-07-14 09:58:00,
2013-07-14 04:03:00,67.0,62.7,30.01,NNW,337,23.0,24.0,86,0.00,,,0.00,VWS V14.01,2013-07-14 10:03:00,
2013-07-14 04:08:00,67.0,62.3,30.01,NW,315,23.0,26.0,85,0.00,,,0.00,VWS V14.01,2013-07-14 10:08:00,
2013-07-14 04:13:00,67.0,62.3,30.02,NW,315,22.0,27.0,85,0.00,,,0.00,VWS V14.01,2013-07-14 10:13:00,
2013-07-14 04:18:00,67.0,62.7,30.02,NNW,337,27.0,27.0,86,0.00,,,0.00,VWS V14.01,2013-07-14 10:18:00,
2013-07-14 04:24:00,67.0,63.0,30.01,NNW,337,22.0,28.0,87,0.00,,,0.00,VWS V14.01,2013-07-14 10:24:00,
2013-07-14 04:29:00,67.0,63.3,30.01,NW,315,20.0,22.0,88,0.00,,,0.00,VWS V14.01,2013-07-14 10:29:00,
2013-07-14 04:34:00,67.0,63.0,30.02,NW,315,24.0,29.0,87,0.00,,,0.00,VWS V14.01,2013-07-14 10:34:00,
2013-07-14 04:39:00,67.0,62.7,30.02,NW,315,23.0,29.0,86,0.00,,,0.00,VWS V14.01,2013-07-14 10:39:00,
2013-07-14 04:44:00,67.0,62.7,30.03,NW,315,22.0,30.0,86,0.00,,,0.00,VWS V14.01,2013-07-14 10:44:00,
2013-07-14 04:49:00,67.0,62.7,30.03,NW,315,26.0,30.0,86,0.00,,,0.00,VWS V14.01,2013-07-14 10:49:00,
2013-07-14 04:54:00,67.0,63.3,30.03,NNW,337,17.0,30.0,88,0.00,,,0.00,VWS V14.01,2013-07-14 10:54:00,
2013-07-14 04:59:00,67.0,63.3,30.03,NW,315,25.0,31.0,88,67.18,,,0.00,VWS V14.01,2013-07-14 10:59:00,
2013-07-14 05:04:00,66.0,62.7,30.03,NW,315,16.0,31.0,89,0.00,,,0.00,VWS V14.01,2013-07-14 11:04:00,
2013-07-14 05:09:00,66.0,62.7,30.03,NNW,337,26.0,31.0,89,0.00,,,0.00,VWS V14.01,2013-07-14 11:09:00,
2013-07-14 05:14:00,66.0,62.7,30.03,NW,315,26.0,31.0,89,0.00,,,0.00,VWS V14.01,2013-07-14 11:14:00,
2013-07-14 05:19:00,66.0,62.7,30.03,NW,315,23.0,31.0,89,0.00,,,0.00,VWS V14.01,2013-07-14 11:19:00,
2013-07-14 05:24:00,66.0,63.0,30.04,NNW,337,17.0,31.0,90,0.00,,,0.00,VWS V14.01,2013-07-14 11:24:00,
2013-07-14 05:29:00,66.0,62.7,30.04,NW,315,20.0,26.0,89,0.00,,,0.00,VWS V14.01,2013-07-14 11:29:00,
2013-07-14 05:34:00,66.0,63.0,30.03,NW,315,19.0,27.0,90,0.00,,,0.00,VWS V14.01,2013-07-14 11:34:00,
2013-07-14 05:39:00,66.0,63.0,30.03,NW,315,24.0,29.0,90,0.00,,,0.00,VWS V14.01,2013-07-14 11:39:00,
2013-07-14 05:44:00,66.0,63.0,30.04,NW,315,20.0,31.0,90,0.00,,,0.00,VWS V14.01,2013-07-14 11:44:00,
2013-07-14 05:49:00,65.0,61.7,30.04,NW,315,19.0,31.0,89,0.00,,,0.00,VWS V14.01,2013-07-14 11:49:00,
2013-07-14 05:54:00,65.0,62.0,30.04,NW,315,20.0,31.0,90,0.00,,,0.00,VWS V14.01,2013-07-14 11:54:00,
2013-07-14 05:59:00,65.0,62.0,30.04,NW,315,18.0,28.0,90,0.00,,,0.00,VWS V14.01,2013-07-14 11:59:00,
2013-07-14 06:04:00,65.0,62.0,30.05,NW,315,22.0,28.0,90,0.00,,,0.00,VWS V14.01,2013-07-14 12:04:00,
2013-07-14 06:09:00,65.0,62.0,30.05,NW,315,19.0,29.0,90,0.00,,,0.00,VWS V14.01,2013-07-14 12:09:00,
2013-07-14 06:14:00,65.0,62.0,30.04,NW,315,20.0,30.0,90,0.00,,,0.00,VWS V14.01,2013-07-14 12:14:00,
2013-07-14 06:19:00,65.0,61.7,30.04,NW,315,22.0,32.0,89,0.00,,,0.00,VWS V14.01,2013-07-14 12:19:00,
2013-07-14 06:24:00,65.0,62.0,30.05,NW,315,23.0,32.0,90,0.00,,,0.00,VWS V14.01,2013-07-14 12:24:00,
2013-07-14 06:29:00,65.0,62.0,30.05,NW,315,23.0,26.0,90,0.00,,,0.00,VWS V14.01,2013-07-14 12:29:00,
2013-07-14 06:34:00,65.0,62.0,30.05,NW,315,21.0,28.0,90,0.00,,,0.00,VWS V14.01,2013-07-14 12:34:00,
2013-07-14 06:39:00,65.0,61.7,30.05,NW,315,19.0,29.0,89,0.00,,,0.00,VWS V14.01,2013-07-14 12:39:00,
2013-07-14 06:44:00,65.0,62.0,30.04,NW,315,19.0,29.0,90,0.00,,,0.00,VWS V14.01,2013-07-14 12:44:00,
2013-07-14 06:49:00,65.0,62.0,30.04,NW,315,17.0,29.0,90,0.00,,,0.00,VWS V14.01,2013-07-14 12:49:00,
2013-07-14 06:54:00,65.0,62.0,30.05,NNW,337,22.0,29.0,90,0.00,,,0.00,VWS V14.01,2013-07-14 12:54:00,
2013-07-14 06:59:00,65.0,62.0,30.05,WNW,292,19.0,22.0,90,0.00,,,0.00,VWS V14.01,2013-07-14 12:59:00,
2013-07-14 07:04:00,65.0,62.0,30.05,NW,315,21.0,26.0,90,0.00,,,0.00,VWS V14.01,2013-07-14 13:04:00,
2013-07-14 07:09:00,65.0,61.7,30.05,NW,315,18.0,26.0,89,0.00,,,0.00,VWS V14.01,2013-07-14 13:09:00,
2013-07-14 07:14:00,65.0,61.7,30.07,NW,315,13.0,26.0,89,0.00,,,0.00,VWS V14.01,2013-07-14 13:14:00,
2013-07-14 07:20:00,65.0,61.7,30.07,NNW,337,17.0,26.0,89,0.00,,,0.00,VWS V14.01,2013-07-14 13:20:00,
2013-07-14 07:25:00,65.0,61.4,30.07,NNW,337,16.0,26.0,88,0.00,,,0.00,VWS V14.01,2013-07-14 13:25:00,
2013-07-14 07:30:00,65.0,61.7,30.07,NNW,337,14.0,17.0,89,0.00,,,0.00,VWS V14.01,2013-07-14 13:30:00,
2013-07-14 07:35:00,65.0,61.7,30.06,NNW,337,17.0,21.0,89,0.00,,,0.00,VWS V14.01,2013-07-14 13:35:00,
2013-07-14 07:40:00,65.0,61.7,30.06,NNW,337,15.0,21.0,89,0.00,,,0.00,VWS V14.01,2013-07-14 13:40:00,
2013-07-14 07:45:00,65.0,62.0,30.07,NNW,337,15.0,21.0,90,0.00,,,0.00,VWS V14.01,2013-07-14 13:45:00,
2013-07-14 07:50:00,65.0,61.7,30.07,NNW,337,17.0,21.0,89,0.00,,,0.00,VWS V14.01,2013-07-14 13:50:00,
2013-07-14 07:55:00,65.0,62.0,30.08,North,360,12.0,21.0,90,0.00,,,0.00,VWS V14.01,2013-07-14 13:55:00,
2013-07-14 08:00:00,64.0,61.0,30.08,NNW,337,17.0,21.0,90,0.00,,,0.00,VWS V14.01,2013-07-14 14:00:00,
2013-07-14 08:05:00,64.0,60.7,30.08,NNW,337,13.0,21.0,89,0.00,,,0.00,VWS V14.01,2013-07-14 14:05:00,
2013-07-14 08:10:00,64.0,60.7,30.08,NNW,337,14.0,21.0,89,0.00,,,0.00,VWS V14.01,2013-07-14 14:10:00,
2013-07-14 08:15:00,64.0,60.7,30.09,NNW,337,16.0,21.0,89,0.00,,,0.00,VWS V14.01,2013-07-14 14:15:00,
2013-07-14 08:20:00,64.0,60.4,30.09,NNW,337,17.0,21.0,88,0.00,,,0.00,VWS V14.01,2013-07-14 14:20:00,
2013-07-14 08:25:00,64.0,60.7,30.09,NW,315,13.0,21.0,89,0.00,,,0.00,VWS V14.01,2013-07-14 14:25:00,
2013-07-14 08:30:00,64.0,60.4,30.09,North,360,16.0,17.0,88,0.00,,,0.00,VWS V14.01,2013-07-14 14:30:00,
2013-07-14 08:35:00,64.0,60.4,30.09,NNW,337,16.0,18.0,88,0.00,,,0.00,VWS V14.01,2013-07-14 14:35:00,
2013-07-14 08:40:00,65.0,61.4,30.09,NNW,337,18.0,20.0,88,0.00,,,0.00,VWS V14.01,2013-07-14 14:40:00,
2013-07-14 08:45:00,64.0,60.4,30.10,NNW,337,16.0,20.0,88,0.00,,,0.00,VWS V14.01,2013-07-14 14:45:00,
2013-07-14 08:50:00,64.0,60.4,30.10,NNW,337,17.0,20.0,88,0.00,,,0.00,VWS V14.01,2013-07-14 14:50:00,
2013-07-14 08:55:00,64.0,60.7,30.10,North,360,15.0,20.0,89,0.00,,,0.00,VWS V14.01,2013-07-14 14:55:00,
2013-07-14 09:00:00,64.0,60.7,30.10,NNW,337,16.0,19.0,89,0.00,,,0.00,VWS V14.01,2013-07-14 15:00:00,
2013-07-14 09:05:00,63.0,59.7,30.10,NNW,337,16.0,22.0,89,0.00,,,0.00,VWS V14.01,2013-07-14 15:05:00,
2013-07-14 09:10:00,63.0,59.7,30.10,North,360,16.0,22.0,89,0.00,,,0.00,VWS V14.01,2013-07-14 15:10:00,
2013-07-14 09:15:00,63.0,59.7,30.11,NNW,337,17.0,23.0,89,0.00,,,0.00,VWS V14.01,2013-07-14 15:15:00,
2013-07-14 09:20:00,63.0,59.7,30.11,NNW,337,22.0,25.0,89,0.00,,,0.00,VWS V14.01,2013-07-14 15:20:00,
2013-07-14 09:25:00,63.0,59.7,30.11,North,360,19.0,25.0,89,0.00,,,0.00,VWS V14.01,2013-07-14 15:25:00,
2013-07-14 09:30:00,63.0,59.7,30.11,NNW,337,20.0,23.0,89,0.00,,,0.00,VWS V14.01,2013-07-14 15:30:00,
2013-07-14 09:35:00,63.0,59.7,30.11,NNW,337,18.0,25.0,89,0.00,,,0.00,VWS V14.01,2013-07-14 15:35:00,
2013-07-14 09:40:00,63.0,59.7,30.11,NNW,337,15.0,26.0,89,0.00,,,0.00,VWS V14.01,2013-07-14 15:40:00,
2013-07-14 09:45:00,63.0,59.7,30.11,NNW,337,17.0,26.0,89,0.00,,,0.00,VWS V14.01,2013-07-14 15:45:00,
2013-07-14 09:50:00,63.0,59.7,30.11,NNW,337,17.0,26.0,89,0.00,,,0.00,VWS V14.01,2013-07-14 15:50:00,
2013-07-14 09:55:00,64.0,61.0,30.11,NNW,337,16.0,26.0,90,0.00,,,0.00,VWS V14.01,2013-07-14 15:55:00,
2013-07-14 10:00:00,64.0,61.0,30.11,NNW,337,23.0,25.0,90,0.00,,,0.00,VWS V14.01,2013-07-14 16:00:00,
2013-07-14 10:05:00,63.0,59.4,30.10,NNW,337,19.0,28.0,88,0.00,,,0.00,VWS V14.01,2013-07-14 16:05:00,
2013-07-14 10:10:00,64.0,60.4,30.10,NNW,337,19.0,28.0,88,0.00,,,0.00,VWS V14.01,2013-07-14 16:10:00,
2013-07-14 10:15:00,63.0,59.1,30.10,NNW,337,19.0,28.0,87,0.00,,,0.00,VWS V14.01,2013-07-14 16:15:00,
2013-07-14 10:20:00,63.0,58.8,30.10,NW,315,19.0,28.0,86,0.00,,,0.00,VWS V14.01,2013-07-14 16:20:00,
2013-07-14 10:26:00,64.0,60.7,30.11,NNW,337,19.0,28.0,89,0.00,,,0.00,VWS V14.01,2013-07-14 16:26:00,
2013-07-14 10:31:00,64.0,60.7,30.11,NNW,337,19.0,23.0,89,0.00,,,0.00,VWS V14.01,2013-07-14 16:31:00,
2013-07-14 10:36:00,64.0,60.4,30.11,NW,315,18.0,24.0,88,0.00,,,0.00,VWS V14.01,2013-07-14 16:36:00,
2013-07-14 10:41:00,64.0,60.7,30.11,NW,315,20.0,24.0,89,0.00,,,0.00,VWS V14.01,2013-07-14 16:41:00,
2013-07-14 10:46:00,65.0,61.7,30.11,NW,315,20.0,25.0,89,0.00,,,0.00,VWS V14.01,2013-07-14 16:46:00,
2013-07-14 10:51:00,65.0,61.7,30.10,NNW,337,20.0,25.0,89,0.00,,,0.00,VWS V14.01,2013-07-14 16:51:00,
2013-07-14 10:56:00,66.0,62.3,30.10,NNW,337,16.0,25.0,88,0.00,,,0.00,VWS V14.01,2013-07-14 16:56:00,
2013-07-14 11:01:00,67.0,63.0,30.08,NW,315,16.0,23.0,87,0.00,,,0.00,VWS V14.01,2013-07-14 17:01:00,
2013-07-14 11:06:00,68.0,63.7,30.08,North,360,15.0,23.0,86,0.00,,,0.00,VWS V14.01,2013-07-14 17:06:00,
2013-07-14 11:11:00,66.0,62.0,30.09,North,360,17.0,23.0,87,0.00,,,0.00,VWS V14.01,2013-07-14 17:11:00,
2013-07-14 11:16:00,65.0,61.7,30.09,NNW,337,19.0,23.0,89,0.00,,,0.00,VWS V14.01,2013-07-14 17:16:00,
2013-07-14 11:21:00,65.0,62.0,30.11,NNW,337,18.0,23.0,90,0.00,,,0.00,VWS V14.01,2013-07-14 17:21:00,
2013-07-14 11:26:00,65.0,62.0,30.11,NW,315,16.0,23.0,90,0.00,,,0.00,VWS V14.01,2013-07-14 17:26:00,
2013-07-14 11:31:00,66.0,62.7,30.10,NNW,337,17.0,20.0,89,0.00,,,0.00,VWS V14.01,2013-07-14 17:31:00,
2013-07-14 11:36:00,66.0,62.7,30.10,North,360,20.0,23.0,89,0.00,,,0.00,VWS V14.01,2013-07-14 17:36:00,
2013-07-14 11:41:00,65.0,62.0,30.11,NW,315,17.0,23.0,90,0.00,,,0.00,VWS V14.01,2013-07-14 17:41:00,
2013-07-14 11:46:00,65.0,62.0,30.11,NNW,337,19.0,23.0,90,0.00,,,0.00,VWS V14.01,2013-07-14 17:46:00,
2013-07-14 11:51:00,65.0,61.7,30.12,North,360,22.0,23.0,89,0.00,,,0.00,VWS V14.01,2013-07-14 17:51:00,
2013-07-14 11:56:00,65.0,62.0,30.12,NNW,337,13.0,23.0,90,0.00,,,0.00,VWS V14.01,2013-07-14 17:56:00,
2013-07-14 12:01:00,65.0,62.0,30.13,NW,315,13.0,18.0,90,0.00,,,0.00,VWS V14.01,2013-07-14 18:01:00,
2013-07-14 12:06:00,64.0,61.0,30.13,NNW,337,16.0,20.0,90,0.00,,,0.00,VWS V14.01,2013-07-14 18:06:00,
2013-07-14 12:11:00,65.0,62.0,30.13,NW,315,14.0,20.0,90,0.00,,,0.00,VWS V14.01,2013-07-14 18:11:00,
2013-07-14 12:16:00,64.0,61.0,30.13,NNW,337,16.0,20.0,90,0.00,,,0.00,VWS V14.01,2013-07-14 18:16:00,
2013-07-14 12:21:00,64.0,61.0,30.13,NNW,337,19.0,21.0,90,0.00,,,0.00,VWS V14.01,2013-07-14 18:21:00,
2013-07-14 12:26:00,64.0,61.0,30.13,NNW,337,18.0,21.0,90,0.00,,,0.00,VWS V14.01,2013-07-14 18:26:00,
2013-07-14 12:31:00,64.0,61.0,30.13,NNW,337,18.0,22.0,90,0.00,,,0.00,VWS V14.01,2013-07-14 18:31:00,
2013-07-14 12:36:00,64.0,61.0,30.13,North,360,18.0,22.0,90,0.00,,,0.00,VWS V14.01,2013-07-14 18:36:00,
2013-07-14 12:41:00,64.0,61.0,30.12,NNW,337,19.0,22.0,90,0.00,,,0.00,VWS V14.01,2013-07-14 18:41:00,
2013-07-14 12:46:00,64.0,61.0,30.12,North,360,21.0,22.0,90,0.00,,,0.00,VWS V14.01,2013-07-14 18:46:00,
2013-07-14 12:52:00,64.0,61.0,30.12,North,360,14.0,23.0,90,0.00,,,0.00,VWS V14.01,2013-07-14 18:52:00,
2013-07-14 12:57:00,64.0,61.0,30.12,NNW,337,22.0,23.0,90,0.00,,,0.00,VWS V14.01,2013-07-14 18:57:00,
2013-07-14 13:02:00,64.0,61.0,30.13,NNW,337,11.0,21.0,90,0.00,,,0.00,VWS V14.01,2013-07-14 19:02:00,
2013-07-14 13:07:00,64.0,61.0,30.13,NNW,337,15.0,22.0,90,0.00,,,0.00,VWS V14.01,2013-07-14 19:07:00,
2013-07-14 13:12:00,64.0,61.0,30.13,North,360,13.0,22.0,90,0.00,,,0.00,VWS V14.01,2013-07-14 19:12:00,
2013-07-14 13:17:00,64.0,60.7,30.13,NNW,337,16.0,22.0,89,0.00,,,0.00,VWS V14.01,2013-07-14 19:17:00,
2013-07-14 13:22:00,64.0,60.7,30.13,NNW,337,17.0,22.0,89,0.00,,,0.00,VWS V14.01,2013-07-14 19:22:00,
2013-07-14 13:27:00,64.0,61.0,30.13,North,360,14.0,22.0,90,0.00,,,0.00,VWS V14.01,2013-07-14 19:27:00,
2013-07-14 13:32:00,65.0,62.0,30.13,NW,315,16.0,19.0,90,0.00,,,0.00,VWS V14.01,2013-07-14 19:32:00,
2013-07-14 13:47:00,66.0,62.7,30.14,NNW,337,16.0,21.0,89,0.00,,,0.00,VWS V14.01,2013-07-14 19:47:00,
2013-07-14 13:52:00,66.0,63.0,30.13,NNW,337,16.0,21.0,90,0.00,,,0.00,VWS V14.01,2013-07-14 19:52:00,
2013-07-14 13:57:00,65.0,62.0,30.13,NNW,337,13.0,21.0,90,0.00,,,0.00,VWS V14.01,2013-07-14 19:57:00,
2013-07-14 14:03:00,66.0,62.7,30.13,NNW,337,13.0,20.0,89,0.00,,,0.00,VWS V14.01,2013-07-14 20:03:00,
2013-07-14 14:08:00,66.0,62.7,30.13,North,360,13.0,20.0,89,0.00,,,0.00,VWS V14.01,2013-07-14 20:08:00,
2013-07-14 14:13:00,66.0,62.7,30.12,North,360,15.0,23.0,89,0.00,,,0.00,VWS V14.01,2013-07-14 20:13:00,
2013-07-14 14:18:00,66.0,62.7,30.12,North,360,16.0,23.0,89,0.00,,,0.00,VWS V14.01,2013-07-14 20:18:00,
2013-07-14 14:23:00,66.0,62.7,30.13,North,360,17.0,23.0,89,0.00,,,0.00,VWS V14.01,2013-07-14 20:23:00,
2013-07-14 14:28:00,66.0,63.0,30.13,NNW,337,13.0,23.0,90,0.00,,,0.00,VWS V14.01,2013-07-14 20:28:00,
2013-07-14 14:33:00,66.0,62.3,30.12,NNW,337,15.0,22.0,88,0.00,,,0.00,VWS V14.01,2013-07-14 20:33:00,
2013-07-14 14:38:00,66.0,62.3,30.12,NNW,337,22.0,22.0,88,0.00,,,0.00,VWS V14.01,2013-07-14 20:38:00,
2013-07-14 14:43:00,66.0,62.3,30.12,North,360,19.0,23.0,88,0.00,,,0.00,VWS V14.01,2013-07-14 20:43:00,
2013-07-14 14:48:00,67.0,63.3,30.12,NNW,337,16.0,23.0,88,0.00,,,0.00,VWS V14.01,2013-07-14 20:48:00,
2013-07-14 14:53:00,66.0,61.7,30.11,North,360,17.0,25.0,86,0.00,,,0.00,VWS V14.01,2013-07-14 20:53:00,
2013-07-14 14:58:00,66.0,62.0,30.11,NNW,337,19.0,25.0,87,0.00,,,0.00,VWS V14.01,2013-07-14 20:58:00,
2013-07-14 15:03:00,67.0,62.0,30.11,NNW,337,15.0,22.0,84,0.00,,,0.00,VWS V14.01,2013-07-14 21:03:00,
2013-07-14 15:08:00,67.0,62.3,30.11,North,360,19.0,22.0,85,0.00,,,0.00,VWS V14.01,2013-07-14 21:08:00,
2013-07-14 15:13:00,67.0,62.3,30.10,North,360,20.0,23.0,85,0.00,,,0.00,VWS V14.01,2013-07-14 21:13:00,
2013-07-14 15:18:00,69.0,62.2,30.10,NNW,337,15.0,23.0,79,0.00,,,0.00,VWS V14.01,2013-07-14 21:18:00,
2013-07-14 15:23:00,69.0,61.9,30.08,North,360,19.0,23.0,78,0.00,,,0.00,VWS V14.01,2013-07-14 21:23:00,
2013-07-14 15:28:00,69.0,61.9,30.08,North,360,20.0,25.0,78,0.00,,,0.00,VWS V14.01,2013-07-14 21:28:00,
2013-07-14 15:33:00,70.0,63.9,30.08,NNW,337,19.0,22.0,81,0.00,,,0.00,VWS V14.01,2013-07-14 21:33:00,
2013-07-14 15:38:00,70.0,62.8,30.08,NNW,337,13.0,23.0,78,0.00,,,0.00,VWS V14.01,2013-07-14 21:38:00,
2013-07-14 15:43:00,70.0,62.1,30.07,NNW,337,16.0,23.0,76,0.00,,,0.00,VWS V14.01,2013-07-14 21:43:00,
2013-07-14 15:48:00,70.0,62.5,30.07,North,360,18.0,23.0,77,0.00,,,0.00,VWS V14.01,2013-07-14 21:48:00,
2013-07-14 15:53:00,71.0,61.9,30.07,North,360,17.0,23.0,73,0.00,,,0.00,VWS V14.01,2013-07-14 21:53:00,
2013-07-14 15:58:00,71.0,62.3,30.07,North,360,21.0,23.0,74,0.00,,,0.00,VWS V14.01,2013-07-14 21:58:00,
2013-07-14 16:03:00,71.0,61.5,30.06,NNE,22,14.0,23.0,72,0.00,,,0.00,VWS V14.01,2013-07-14 22:03:00,
2013-07-14 16:08:00,71.0,61.1,30.06,North,360,14.0,23.0,71,0.00,,,0.00,VWS V14.01,2013-07-14 22:08:00,
2013-07-14 16:13:00,71.0,61.1,30.05,North,360,13.0,23.0,71,0.00,,,0.00,VWS V14.01,2013-07-14 22:13:00,
2013-07-14 16:18:00,71.0,61.5,30.05,North,360,16.0,23.0,72,0.00,,,0.00,VWS V14.01,2013-07-14 22:18:00,
2013-07-14 16:23:00,71.0,61.9,30.05,North,360,17.0,23.0,73,0.00,,,0.00,VWS V14.01,2013-07-14 22:23:00,
2013-07-14 16:28:00,71.0,61.5,30.05,NNE,22,16.0,17.0,72,0.00,,,0.00,VWS V14.01,2013-07-14 22:28:00,
2013-07-14 16:34:00,72.0,62.9,30.05,North,360,18.0,22.0,73,0.00,,,0.00,VWS V14.01,2013-07-14 22:34:00,
2013-07-14 16:39:00,72.0,62.5,30.05,North,360,13.0,22.0,72,0.00,,,0.00,VWS V14.01,2013-07-14 22:39:00,
2013-07-14 16:44:00,72.0,62.1,30.05,North,360,19.0,22.0,71,0.00,,,0.00,VWS V14.01,2013-07-14 22:44:00,
2013-07-14 16:49:00,71.0,62.7,30.05,NNW,337,19.0,23.0,75,0.00,,,0.00,VWS V14.01,2013-07-14 22:49:00,
2013-07-14 16:54:00,70.0,62.5,30.05,North,360,17.0,23.0,77,0.00,,,0.00,VWS V14.01,2013-07-14 22:54:00,
2013-07-14 16:59:00,69.0,62.6,30.05,North,360,17.0,20.0,80,0.00,,,0.00,VWS V14.01,2013-07-14 22:59:00,
2013-07-14 17:04:00,69.0,62.6,30.06,North,360,17.0,22.0,80,0.00,,,0.00,VWS V14.01,2013-07-14 23:04:00,
2013-07-14 17:09:00,68.0,62.0,30.06,North,360,15.0,22.0,81,0.00,,,0.00,VWS V14.01,2013-07-14 23:09:00,
2013-07-14 17:14:00,68.0,63.3,30.08,North,360,17.0,26.0,85,0.00,,,0.00,VWS V14.01,2013-07-14 23:14:00,
2013-07-14 17:19:00,67.0,62.7,30.08,North,360,18.0,26.0,86,0.00,,,0.00,VWS V14.01,2013-07-14 23:19:00,
2013-07-14 17:24:00,66.0,62.3,30.08,North,360,21.0,26.0,88,0.00,,,0.00,VWS V14.01,2013-07-14 23:24:00,
2013-07-14 18:00:00,64.0,61.0,30.10,NNW,337,17.0,27.0,90,0.00,,,0.00,VWS V14.01,2013-07-15 00:00:00,
2013-07-14 18:30:00,64.0,61.0,30.11,NNW,337,16.0,17.0,90,0.00,,,0.00,VWS V14.01,2013-07-15 00:30:00,
2013-07-14 19:00:00,64.0,61.0,30.11,NW,315,13.0,16.0,90,0.00,,,0.00,VWS V14.01,2013-07-15 01:00:00,
2013-07-14 19:30:00,63.0,59.1,30.12,NNW,337,11.0,13.0,87,0.00,,,0.00,VWS V14.01,2013-07-15 01:30:00,
2013-07-14 20:00:00,63.0,56.4,30.13,North,360,9.0,11.0,79,0.00,,,0.00,VWS V14.01,2013-07-15 02:00:00,
2013-07-14 20:30:00,62.0,54.0,30.14,North,360,6.0,9.0,75,0.00,,,0.00,VWS V14.01,2013-07-15 02:30:00,
2013-07-14 21:00:00,62.0,51.7,30.15,NNW,337,6.0,6.0,69,0.00,,,0.00,VWS V14.01,2013-07-15 03:00:00,
2013-07-14 21:30:00,62.0,50.1,30.15,WNW,292,5.0,6.0,65,0.00,,,0.00,VWS V14.01,2013-07-15 03:30:00,
2013-07-14 22:00:00,62.0,50.5,30.16,West,270,6.0,6.0,66,0.00,,,0.00,VWS V14.01,2013-07-15 04:00:00,
2013-07-14 22:30:00,62.0,50.5,30.15,WNW,292,5.0,6.0,66,0.00,,,0.00,VWS V14.01,2013-07-15 04:30:00,
2013-07-14 23:00:00,62.0,48.8,30.14,West,270,4.0,5.0,62,0.00,,,0.00,VWS V14.01,2013-07-15 05:00:00,
2013-07-14 23:30:00,63.0,53.8,30.13,WNW,292,3.0,4.0,72,0.00,,,0.00,VWS V14.01,2013-07-15 05:30:00,